Simultaneous Nadir Overpasses (SNOs) Predictions

Prediction of SNOs between GOES-16 and METOP-C Satellite Orbit:

Table of predicted SNOs for the next 14.0 days since TLE Epoch: 12/8/2019
Index Date Time (GOES-16) GOES-16 Lat,Lon METOP-C Lat,Lon Distance(km) Time Diff (sec)
1 12/08/2019 14:34:25 0.01, -75.21 0.25, -76.26 119.66 80
2 12/09/2019 14:16:14 0.01, -75.21 -0.90, -71.22 455.47 80
3 12/11/2019 02:32:17 -0.01, -75.21 -0.14, -75.73 60.21 80
4 12/13/2019 14:32:40 0.02, -75.23 0.02, -75.17 6.67 80
5 12/16/2019 02:27:51 -0.03, -75.24 0.07, -74.65 66.89 80
6 12/17/2019 14:46:26 0.04, -75.26 0.89, -79.14 441.26 80
7 12/18/2019 14:28:14 0.05, -75.27 -0.20, -74.09 134.79 80
8 12/20/2019 02:46:57 -0.05, -75.28 -0.80, -78.61 379.51 80
9 12/21/2019 02:23:27 -0.05, -75.30 0.34, -73.57 196.76 80




NCC Satellite Simultaneous Nadir Overpasses (SNOs) Prediction Service
